ECMWFFLT1_250_spd_021.txt.gz
Wind_Speed
46 42 40 39 38 37 35 34 33 33 32 31 31 30 30 30 30 31 31 33 34 34 35 36 37 37 38 39 41 44 48 48 46 44 44 44 44 41 39 39 42 41 38 37 37 37 37 39 38 36 37 39 40 42 41 42 43 44 45 46 47 48 46
49 44 42 40 39 38 36 35 33 33 33 32 31 30 29 28 28 29 29 30 31 32 33 35 36 37 37 38 40 43 47 49 49 48 46 45 44 43 42 42 42 42 38 37 39 38 36 37 39 39 38 39 41 42 43 42 43 44 46 47 47 48 48
50 47 44 42 41 39 38 36 35 33 33 33 33 31 29 29 29 28 28 29 29 30 31 33 34 35 36 37 38 40 43 47 50 50 50 49 46 45 45 45 44 44 41 39 40 40 38 37 39 41 41 41 42 42 43 42 43 45 46 47 47 48 49
52 49 46 44 42 41 39 38 36 35 34 33 34 33 32 31 31 30 30 29 29 30 30 31 32 33 34 35 36 37 39 42 45 48 50 50 48 46 47 48 48 47 43 41 41 42 40 38 39 42 43 43 43 43 43 43 43 44 45 46 47 48 49
53 49 47 46 44 43 41 40 39 37 36 35 34 34 34 33 33 32 32 32 32 31 31 31 32 33 33 34 35 35 36 37 40 42 44 46 46 46 48 50 50 49 45 43 43 41 39 39 41 42 44 45 45 45 45 44 43 43 44 45 46 47 48
52 49 47 46 46 45 43 42 41 40 38 37 36 35 35 35 35 35 34 34 33 33 33 32 32 33 34 34 35 36 36 36 37 38 39 40 42 45 49 51 52 51 47 45 45 42 39 40 41 42 43 45 45 46 47 47 45 44 44 43 44 45 46
50 48 47 47 47 47 45 44 44 43 41 40 39 38 37 37 37 37 36 36 35 35 35 34 34 35 35 35 36 37 38 38 38 38 37 38 39 41 45 49 52 52 49 47 47 45 43 42 42 41 42 44 46 47 48 49 48 47 46 45 45 45 45
50 49 48 47 47 47 47 46 46 45 44 43 42 41 40 39 39 39 38 38 37 37 36 36 36 36 37 37 37 38 39 40 40 40 39 38 37 38 41 45 50 52 51 50 50 49 48 46 45 42 41 43 45 47 48 49 50 49 48 47 48 48 47
52 50 49 48 48 48 48 48 47 47 47 46 45 44 43 42 42 42 41 40 40 39 38 38 37 37 37 38 39 39 40 40 41 41 41 41 40 39 39 41 44 48 51 52 53 53 52 51 49 47 45 44 44 46 47 49 50 50 49 49 50 50 50
53 52 52 51 49 48 48 48 49 49 49 48 48 47 46 45 44 44 44 43 43 42 41 40 40 39 38 38 39 40 41 42 42 42 42 43 43 42 41 41 42 44 47 51 53 55 56 55 55 53 51 49 47 47 47 47 48 49 50 51 51 52 52
52 52 54 54 52 51 50 49 49 49 50 50 49 49 48 48 47 46 46 45 45 45 44 43 42 42 41 40 40 40 41 42 44 45 45 45 45 44 44 43 43 43 45 47 50 53 56 57 57 57 56 55 53 51 49 49 49 49 50 52 53 53 54
50 50 51 53 53 53 52 52 50 50 50 50 50 50 50 49 49 48 48 48 48 47 47 47 46 45 44 43 43 42 42 42 43 45 46 47 47 47 46 46 46 46 46 46 48 50 53 55 56 57 57 58 58 56 54 53 53 52 51 51 54 55 57
50 49 50 52 53 54 54 54 53 52 51 50 49 50 50 50 50 50 50 50 50 50 50 50 49 48 47 47 46 45 45 44 44 44 46 47 48 48 49 49 49 48 48 48 48 49 50 53 54 55 56 57 59 59 58 57 57 57 55 53 53 55 58
55 53 52 51 51 54 55 55 55 55 54 52 51 51 51 52 52 52 51 51 51 51 52 52 51 51 51 50 49 49 48 48 47 46 46 47 48 49 50 50 51 51 51 50 50 50 50 51 53 54 55 56 57 58 60 60 60 60 60 58 56 54 55
59 58 57 54 53 53 53 53 55 55 56 55 55 55 54 54 54 53 53 52 52 52 52 53 53 53 53 53 52 52 51 51 50 50 49 49 49 49 50 51 52 53 53 53 53 53 52 52 53 54 54 55 56 57 58 60 62 63 63 63 61 58 55
61 60 59 59 58 56 52 51 52 54 56 57 58 58 57 57 57 55 54 54 54 54 54 53 54 54 54 55 55 55 55 54 53 53 53 52 52 52 51 51 51 52 54 55 55 55 55 55 55 55 56 56 56 57 58 59 61 63 64 64 65 64 61
65 63 62 62 63 64 61 59 58 58 58 59 59 59 59 59 58 57 57 56 56 56 56 55 55 55 56 56 57 57 57 57 57 56 55 55 55 55 55 54 54 53 54 54 55 56 56 57 57 57 58 58 58 59 59 60 60 62 64 65 65 65 65
63 63 64 64 65 68 68 67 66 65 63 61 61 62 62 61 60 59 60 59 58 58 58 57 57 57 58 58 58 58 58 58 58 58 58 58 58 58 57 58 58 57 56 56 56 56 56 57 58 59 59 60 60 61 61 61 62 62 64 65 66 66 66
58 58 60 61 62 63 64 63 61 62 63 62 61 63 64 64 64 64 62 61 59 59 59 59 60 60 59 59 59 59 59 59 59 59 60 60 61 61 60 60 61 61 60 60 59 58 58 58 59 59 60 61 61 62 63 63 64 64 65 66 67 68 68
55 56 56 57 57 58 58 58 57 58 60 58 58 59 59 61 63 64 62 60 59 60 60 61 62 63 62 61 60 60 59 59 59 60 61 61 62 63 63 63 63 63 63 63 63 63 62 61 61 61 61 62 62 63 63 64 65 66 67 67 68 68 69
54 54 55 55 55 55 55 55 55 56 56 55 55 55 54 56 58 59 60 58 56 58 59 60 61 63 64 64 62 61 61 61 61 62 62 63 63 63 64 64 65 66 65 65 66 66 67 66 65 64 63 63 63 64 64 65 66 66 67 68 69 70 70
54 54 54 54 55 55 55 54 54 55 55 55 55 55 55 57 58 58 58 56 55 57 59 59 59 60 62 63 63 63 64 64 64 64 65 66 66 66 66 65 66 67 67 68 68 69 69 69 68 68 67 67 66 66 67 67 67 68 68 69 70 71 72
54 54 54 54 54 55 56 55 55 55 56 56 56 56 57 58 58 57 56 56 56 58 59 61 61 60 61 61 62 63 64 65 66 66 68 69 69 69 69 68 68 68 68 69 70 71 71 71 71 71 71 70 70 70 70 70 70 70 70 71 71 72 73
55 54 54 54 54 55 56 57 56 56 57 57 58 58 57 58 58 57 56 56 58 59 59 60 61 61 62 61 61 62 63 64 65 66 67 69 70 70 70 71 72 71 71 70 70 71 72 73 73 73 73 73 73 73 73 73 73 74 74 74 74 74 74
56 56 56 56 56 56 56 57 57 58 58 59 59 59 59 59 59 59 58 59 59 60 60 59 60 62 63 63 62 62 63 63 64 65 65 67 68 69 70 71 71 71 72 72 72 72 73 73 74 75 75 75 75 76 76 76 77 77 77 77 77 78 77
57 58 58 59 59 59 59 59 59 59 60 61 61 61 61 61 61 61 61 61 62 63 63 62 62 63 64 64 63 63 63 64 65 65 65 66 67 68 69 69 67 66 68 71 72 73 73 74 75 75 75 76 77 78 79 79 80 80 80 80 80 80 81
59 59 60 61 61 62 62 62 62 62 63 63 63 64 63 64 64 64 63 63 64 65 66 66 66 65 65 65 65 65 66 66 66 67 68 68 68 69 69 68 67 67 68 69 70 71 72 74 76 76 77 77 78 79 80 81 82 82 82 82 82 83 84
61 61 62 62 62 63 64 65 65 66 66 66 66 66 66 66 66 66 66 65 65 67 69 69 69 69 68 67 67 68 68 68 68 69 72 73 73 74 73 72 71 71 71 71 70 70 71 73 74 76 77 77 78 79 81 82 83 83 84 84 85 85 86
63 63 63 64 64 65 65 66 67 67 68 68 68 68 68 68 68 68 68 68 68 70 71 72 72 72 71 70 69 70 70 71 70 72 75 76 77 77 77 77 76 76 75 74 74 74 74 74 74 75 75 76 77 79 81 83 83 83 84 85 86 87 88
66 66 67 67 67 67 67 68 68 69 69 70 70 70 70 70 69 69 70 70 72 73 73 73 74 74 73 73 72 73 73 74 74 75 76 77 77 77 78 78 79 79 79 79 79 79 79 79 78 78 78 79 80 81 82 83 83 84 84 86 87 89 90
70 70 70 70 70 70 70 70 70 70 70 70 71 70 70 70 70 70 71 72 74 75 75 75 75 75 75 75 75 76 76 77 77 78 78 79 80 79 79 79 80 81 82 82 82 83 83 83 82 82 82 83 84 84 84 84 84 84 85 86 87 89 90
72 72 73 73 73 73 73 72 72 71 71 71 71 71 70 70 70 71 73 74 75 76 76 76 76 77 77 77 77 78 79 79 79 79 80 81 82 83 82 82 83 83 83 84 85 86 86 87 86 86 85 86 86 87 86 86 85 86 86 87 88 89 90
74 74 74 75 75 75 74 74 74 73 72 72 71 70 70 69 70 72 74 75 76 76 76 77 77 78 78 78 79 79 80 80 80 80 81 81 83 84 84 84 85 85 86 87 88 89 89 89 89 90 90 90 90 90 89 88 88 88 88 89 90 90 91
76 76 75 75 75 75 75 75 75 75 74 73 72 70 70 70 71 72 74 75 76 76 76 77 77 78 79 79 80 80 80 80 80 81 81 82 83 83 83 84 85 86 87 88 89 89 90 90 91 92 92 93 93 93 93 92 92 91 91 91 91 91 92
77 77 76 75 75 75 75 76 76 75 75 74 73 72 71 71 71 72 73 74 75 76 76 76 77 78 78 79 80 80 80 81 81 81 82 82 82 82 82 83 84 85 86 87 87 87 88 89 90 91 92 93 94 94 94 94 94 94 93 93 92 92 92
77 76 76 75 74 73 74 74 75 75 74 74 73 72 71 71 71 72 73 73 74 75 75 75 76 77 77 78 79 80 81 81 82 82 82 81 81 82 82 82 82 83 84 84 84 85 85 87 88 89 90 91 92 92 93 93 93 93 93 93 92 92 92
75 75 74 74 73 72 71 72 73 73 74 74 73 70 69 69 69 71 72 73 74 74 74 74 75 75 76 77 77 79 80 80 80 80 80 80 80 80 80 80 80 81 81 81 82 82 83 84 85 86 87 88 88 89 89 90 90 90 90 90 90 90 90

ECMWFFLT1_250_spd_024.txt.gz
Wind_Speed
34 34 35 37 39 42 44 43 41 40 40 40 39 37 34 32 32 32 32 32 32 32 31 32 32 33 34 36 36 37 38 39 39 40 40 40 41 43 41 38 39 41 41 42 41 40 39 38 39 39 39 39 38 37 37 38 40 40 40 39 38 40 42
35 35 36 38 41 44 45 44 41 40 40 40 40 38 36 34 32 32 32 32 31 31 31 31 31 32 33 34 35 35 36 36 36 36 37 39 40 42 43 42 42 42 42 43 42 40 40 41 41 41 41 42 41 39 37 37 39 40 40 39 39 39 41
39 37 37 39 42 45 45 43 41 39 38 39 39 39 37 35 34 33 33 32 32 32 32 31 31 31 32 32 33 34 34 34 34 35 35 37 39 42 44 44 44 45 44 44 43 40 41 42 42 41 42 43 44 42 39 37 39 41 40 40 41 41 42
41 38 39 40 44 46 44 42 39 38 37 38 39 39 38 36 35 34 34 33 32 32 32 32 31 31 31 31 32 33 34 34 34 34 34 36 38 41 45 46 45 46 46 46 45 42 42 42 41 40 41 42 44 44 41 38 38 41 43 43 43 43 43
42 39 40 42 45 47 44 40 37 35 35 37 39 39 38 38 37 36 35 35 34 34 33 33 32 32 31 31 32 32 33 33 34 34 34 35 36 39 43 47 47 47 46 47 48 46 44 44 41 38 39 41 43 44 43 40 39 42 45 47 46 45 44
45 42 42 43 45 47 44 39 36 34 34 36 38 39 39 38 38 37 36 36 35 35 35 35 34 33 33 33 32 32 32 32 33 34 34 35 36 37 40 45 48 49 48 48 49 48 47 47 45 42 40 41 43 44 44 43 42 44 46 48 48 47 46
50 45 43 44 45 45 44 40 38 37 37 36 37 38 39 39 39 39 39 38 37 36 36 36 36 35 35 35 34 34 33 33 32 33 33 34 36 37 39 42 45 48 50 50 50 49 48 50 50 47 44 42 42 43 45 45 45 47 47 48 49 48 48
53 49 47 46 46 46 44 42 41 41 40 39 39 38 38 39 40 41 41 41 40 39 38 37 37 38 37 37 36 36 36 35 34 33 33 33 35 37 38 40 42 45 47 49 51 51 50 52 53 52 49 46 43 42 43 46 47 49 50 50 49 49 48
54 53 51 49 48 47 46 44 44 43 43 42 43 41 40 40 40 41 42 43 42 42 41 40 39 39 39 39 39 38 38 38 37 36 35 34 35 36 38 39 40 41 43 45 48 51 52 53 56 56 52 49 47 44 42 43 46 49 51 51 51 50 50
53 55 55 52 50 49 48 45 44 45 45 45 45 44 43 42 41 42 43 44 44 44 44 43 42 42 42 41 41 41 40 40 39 38 38 37 36 36 37 39 40 41 41 41 43 47 50 53 57 59 56 51 50 49 46 43 44 47 50 52 52 52 51
55 59 61 59 57 56 53 48 46 48 49 48 48 47 46 46 45 44 43 44 45 46 46 46 45 45 44 44 44 44 43 42 41 41 40 39 39 38 38 39 40 41 41 41 41 42 45 49 54 58 58 55 52 52 51 48 45 45 48 50 51 52 52
55 60 62 62 63 62 59 54 52 52 52 51 51 50 49 49 48 47 46 45 45 46 47 48 48 48 47 47 46 46 46 45 45 44 43 42 41 40 40 40 41 41 42 42 42 42 43 45 48 53 57 58 55 55 55 54 52 50 49 49 50 52 53
53 58 61 63 65 66 63 58 56 55 55 54 53 52 51 49 49 49 48 47 47 47 47 48 49 50 50 50 49 49 48 48 48 47 46 45 44 43 42 42 42 42 43 44 44 44 44 44 45 48 52 56 57 57 58 58 57 55 54 52 51 52 52
55 59 63 66 68 70 68 66 62 59 57 57 56 55 54 53 52 51 51 50 49 48 48 48 49 50 51 52 52 51 51 51 50 50 49 49 48 47 46 44 44 44 44 45 46 46 46 46 46 47 48 51 55 57 59 60 60 59 58 57 55 54 54
53 56 61 65 69 71 72 70 67 64 61 60 60 60 59 58 57 55 53 53 52 51 50 50 50 50 51 52 52 53 53 53 53 53 52 51 51 50 50 48 47 46 46 46 47 48 49 49 49 49 49 49 51 54 56 59 61 61 60 59 59 58 57
49 53 56 59 61 64 66 66 65 64 63 63 63 63 62 61 59 57 55 55 55 54 53 53 53 53 52 52 52 53 53 54 54 55 55 55 54 54 53 52 51 50 49 48 48 49 50 51 51 52 52 51 51 52 53 56 58 60 61 61 60 61 60
44 42 41 42 45 49 54 60 62 62 63 64 64 64 64 63 62 61 59 56 55 55 56 56 56 55 55 54 53 53 53 53 54 55 56 57 57 57 56 55 55 54 53 52 52 51 51 52 53 53 54 54 54 54 54 54 55 57 59 60 61 61 62
47 41 34 31 36 43 48 55 59 58 58 61 63 65 65 65 65 63 61 58 56 56 57 57 58 58 57 57 56 55 55 55 54 54 56 57 58 59 59 59 58 57 57 56 56 56 55 54 55 55 55 56 56 57 57 57 57 57 58 59 59 60 62
54 53 46 37 33 35 39 48 55 54 52 55 59 62 65 67 67 65 64 63 63 63 64 65 65 64 62 60 59 58 58 57 56 55 56 57 58 59 60 60 61 60 60 60 59 59 59 59 58 58 58 57 57 58 59 59 59 59 59 60 60 60 61
53 55 57 51 44 40 42 51 58 59 58 59 59 59 62 65 67 67 67 66 67 68 68 68 67 65 64 63 62 61 60 59 58 58 58 59 59 60 60 60 61 62 62 62 63 62 62 62 62 62 61 61 60 60 60 61 61 61 62 62 62 62 62
54 55 58 61 61 59 59 63 67 67 67 66 62 60 60 62 63 65 66 65 64 64 63 63 62 61 61 62 63 63 62 62 62 61 61 61 61 61 61 61 61 61 62 63 64 64 64 65 65 65 65 64 64 63 63 63 63 63 63 63 64 65 65
57 57 58 61 65 68 68 69 70 70 69 66 63 61 60 60 60 61 62 62 61 59 58 58 58 58 58 58 60 61 62 63 63 62 62 62 63 63 63 63 63 63 62 62 63 64 65 66 66 67 67 67 67 67 67 66 66 65 65 66 66 67 67
58 59 59 61 64 66 68 69 69 68 67 64 63 61 60 60 60 60 60 60 59 59 58 57 56 56 56 56 56 57 58 60 62 63 63 63 63 64 64 65 66 66 66 65 64 64 65 66 66 67 68 69 69 69 69 69 69 69 69 69 69 69 69
61 61 61 62 63 65 66 66 66 65 64 64 63 61 61 61 60 60 60 60 60 59 59 58 57 57 57 56 56 56 57 58 61 63 64 64 64 63 63 63 65 67 68 68 67 67 68 68 68 69 69 69 69 70 70 71 72 72 72 73 73 73 73
62 62 63 63 64 64 64 64 63 63 63 62 62 61 61 61 61 61 60 60 60 60 60 60 59 59 58 58 57 57 57 59 61 62 64 65 65 65 64 64 64 65 67 68 68 69 70 71 71 71 71 71 71 71 71 72 73 73 74 75 76 76 76
62 62 63 63 63 63 63 62 62 61 61 61 61 61 61 61 61 62 62 61 61 61 62 62 62 62 61 61 60 59 60 61 62 63 63 64 65 66 67 67 67 67 66 66 67 70 71 73 74 74 74 74 74 74 74 74 74 74 75 76 77 79 79
62 62 63 63 63 62 61 61 61 61 61 61 61 61 61 62 62 62 63 63 63 63 63 64 64 64 64 64 63 63 63 64 64 65 65 64 64 65 66 68 69 68 67 66 67 69 71 72 74 75 75 75 76 76 76 76 76 76 77 78 78 79 80
61 62 62 63 62 62 61 61 61 61 61 61 62 62 63 63 63 64 64 65 65 66 66 66 66 66 66 67 67 67 67 67 67 67 68 67 67 66 67 69 70 69 68 68 69 70 70 71 71 72 74 75 76 76 76 76 76 77 78 79 80 81 81
61 61 62 62 62 62 62 62 62 62 62 62 62 63 63 64 65 65 66 67 67 68 69 69 69 69 69 70 70 70 70 70 70 70 70 70 70 70 70 71 71 71 71 72 72 72 72 71 71 71 72 73 74 75 75 75 76 76 77 78 79 80 81
61 62 62 63 63 64 64 64 64 64 64 64 64 64 64 65 66 67 67 69 69 70 71 71 71 72 72 73 73 73 74 74 73 73 73 73 73 73 73 74 74 74 75 75 75 75 75 75 74 73 73 73 74 75 76 77 77 77 77 77 78 79 80
63 63 64 65 65 65 65 65 66 66 66 66 66 66 66 66 67 68 69 70 71 72 73 73 73 74 74 75 75 76 77 77 77 76 76 76 75 75 76 76 77 77 77 77 77 77 78 78 78 77 76 76 76 76 78 79 80 80 81 81 81 81 81
66 66 67 67 67 67 68 68 68 69 69 69 68 68 68 68 69 70 71 71 72 73 74 75 75 75 76 76 77 77 78 79 79 79 79 79 78 78 78 79 79 79 79 79 79 79 79 80 80 80 80 80 81 81 81 81 80 81 82 83 84 84 84
69 69 69 70 70 70 70 71 71 71 71 71 70 70 69 70 70 71 72 73 74 74 75 75 76 76 77 78 78 79 79 80 81 81 81 81 81 81 81 81 81 81 81 81 81 81 81 81 82 82 83 84 85 86 87 86 85 84 83 83 84 84 84
71 72 72 73 73 73 73 74 74 74 73 73 72 71 71 72 72 73 73 74 74 74 75 75 75 76 77 78 79 80 80 81 82 82 82 82 83 83 82 82 82 82 82 82 82 82 82 82 83 84 85 87 88 89 90 90 90 89 88 88 87 86 86
75 76 76 76 76 75 75 75 75 75 74 74 73 74 74 74 74 74 74 74 74 74 74 75 75 75 76 77 78 79 81 81 82 82 83 83 83 83 83 84 83 83 83 82 82 83 83 84 85 85 86 87 89 90 91 92 92 93 93 92 92 91 91
77 78 78 78 77 76 76 75 75 75 75 74 75 76 76 76 75 75 74 74 74 74 74 74 74 74 74 75 76 78 80 81 81 82 83 83 83 83 83 83 83 83 83 83 84 84 85 85 86 86 87 87 88 89 90 91 92 92 93 93 93 93 93
78 79 78 77 76 75 75 75 75 75 75 75 76 77 77 76 75 74 74 73 73 73 72 72 72 72 72 73 75 76 78 78 79 80 81 81 82 82 82 82 82 83 83 84 85 85 85 85 85 85 86 86 87 87 88 88 89 90 90 90 91 91 92

ECMWFFLT1_250_spd_027.txt.gz
Wind_Speed
50 50 50 51 50 51 51 51 51 50 48 46 44 41 39 39 38 38 37 36 34 34 34 33 30 27 25 25 25 26 27 28 29 30 31 33 34 36 38 40 42 43 42 42 41 40 41 42 41 41 41 42 42 40 40 40 41 40 39 39 39 38 39
51 50 49 49 49 49 49 50 49 48 46 44 42 40 38 38 39 39 39 37 35 34 33 33 30 28 26 25 25 25 26 27 27 28 29 29 31 32 34 35 36 36 35 35 35 35 38 40 40 39 39 41 41 40 40 39 39 39 39 39 39 36 35
53 51 50 47 46 45 46 47 46 45 43 42 41 39 38 38 39 40 39 37 35 34 33 33 31 29 26 25 25 25 25 26 26 26 27 27 29 30 31 32 33 33 33 34 35 35 37 40 41 40 39 39 41 41 41 40 39 39 40 40 39 36 34
53 53 51 47 45 44 45 45 44 43 42 40 39 37 37 38 39 39 38 36 35 34 35 34 33 32 29 26 25 25 25 25 25 25 25 26 27 28 29 30 31 32 33 35 38 38 38 40 42 41 40 40 41 42 42 43 42 41 41 41 40 38 36
50 51 50 47 45 44 45 44 43 43 41 38 36 36 37 38 38 37 36 35 35 35 36 36 36 34 32 29 27 25 25 25 25 25 24 25 26 27 29 29 30 31 32 34 39 41 41 41 42 43 42 41 42 44 45 45 45 45 43 42 41 41 39
45 45 45 45 44 44 45 44 43 42 41 37 36 36 37 37 37 36 35 35 34 35 36 37 38 37 35 33 31 28 27 26 26 25 25 25 25 26 27 29 30 31 32 34 37 42 43 43 43 44 44 43 43 46 47 46 46 47 46 45 44 43 42
44 44 43 42 41 43 44 44 43 42 40 39 38 38 38 38 38 37 35 34 34 35 36 38 39 39 38 37 35 32 30 28 27 27 27 26 26 26 26 27 29 30 32 33 36 40 44 45 45 45 46 45 45 46 47 47 47 48 48 47 46 45 43
42 43 43 42 40 41 44 45 45 44 43 42 42 41 40 39 39 38 36 34 34 35 36 38 39 40 40 39 38 36 34 32 30 30 29 29 28 28 27 27 28 29 31 32 34 38 43 47 47 46 47 47 47 48 48 46 46 48 49 48 48 47 45
45 44 44 44 42 41 43 46 48 48 47 46 45 44 43 41 40 39 38 36 36 36 37 38 39 40 41 41 41 40 38 36 34 33 32 31 31 31 30 30 29 29 30 31 33 35 39 44 47 47 47 47 48 49 49 48 47 47 47 48 49 48 47
53 50 47 45 45 44 44 46 48 50 51 50 49 48 47 45 44 43 43 42 41 40 40 41 41 41 41 41 42 42 41 40 38 37 35 34 34 34 34 33 32 31 31 31 32 34 36 39 43 46 47 47 48 49 50 50 50 49 49 48 48 49 49
57 55 53 49 47 47 46 46 47 48 51 52 51 51 51 50 49 49 48 47 46 44 43 43 44 44 43 43 42 42 42 42 42 41 39 38 37 37 37 36 36 35 34 33 33 34 35 37 39 42 44 46 47 49 51 52 53 53 53 51 49 49 50
57 57 56 52 50 49 47 47 48 48 49 50 52 53 54 54 54 54 53 50 48 47 46 46 46 46 45 44 43 43 43 43 43 44 43 42 41 41 40 40 39 39 38 37 36 35 36 37 38 39 41 43 44 46 49 51 54 55 56 55 53 51 50
54 56 57 55 52 51 51 50 49 47 48 50 52 55 56 57 57 57 56 54 53 52 51 50 49 48 46 45 44 44 44 44 44 45 45 45 45 44 44 43 43 42 41 40 40 39 38 38 38 39 40 42 43 44 46 48 52 55 57 58 57 54 53
52 53 54 54 54 55 56 56 53 51 51 52 55 57 57 58 59 59 59 58 58 58 58 56 54 52 50 48 47 46 46 46 45 45 46 47 47 47 47 46 46 45 45 44 43 43 42 41 40 40 40 42 43 44 44 46 48 51 54 57 58 58 57
55 54 54 56 58 59 59 59 57 55 54 55 57 58 59 60 60 60 58 58 59 60 60 59 58 56 54 52 51 49 47 47 46 46 46 46 48 49 49 49 49 48 48 47 47 46 45 44 43 42 42 42 43 44 46 46 47 48 50 54 57 58 59
60 60 59 59 61 60 59 59 57 55 55 57 57 58 59 60 59 58 56 55 55 56 56 56 56 56 55 55 54 51 49 47 48 48 49 48 47 48 49 50 50 50 50 50 50 50 49 48 47 46 45 45 45 46 46 47 48 49 49 51 53 56 58
58 59 59 59 59 58 57 57 56 55 55 56 58 59 61 62 60 58 56 54 51 50 51 52 54 54 54 55 54 53 52 51 49 49 50 50 49 48 48 49 50 51 52 52 53 53 52 52 51 50 49 48 48 48 48 49 49 50 51 51 52 53 55
54 55 55 55 55 55 54 54 54 53 52 54 55 54 53 53 54 52 50 49 48 46 46 47 49 51 52 54 54 54 55 54 52 50 50 50 50 50 49 49 50 51 52 53 54 54 54 54 54 54 53 52 52 51 51 51 51 51 52 52 53 54 54
52 53 52 52 53 53 54 54 53 51 49 49 49 45 38 36 40 42 41 41 42 43 44 46 48 49 50 51 53 55 56 56 55 53 52 52 52 52 53 53 53 53 53 53 54 55 55 56 56 56 56 56 56 55 55 54 54 54 54 54 55 55 56
51 51 52 53 53 53 53 54 53 51 48 46 46 45 40 35 35 39 43 45 46 46 48 50 51 51 50 51 53 55 56 57 57 57 57 58 58 59 60 61 60 58 56 56 56 56 56 56 57 57 58 58 58 58 58 58 57 57 57 57 57 57 57
51 51 53 54 54 52 51 51 50 48 48 47 45 45 46 42 39 42 47 50 53 55 56 56 56 55 55 56 58 58 57 57 58 59 60 61 62 63 63 63 63 61 60 59 58 58 57 57 57 58 59 59 59 60 60 60 61 60 60 60 60 60 60
54 54 54 55 54 53 52 52 52 52 52 52 48 48 51 51 49 50 53 55 58 62 63 63 63 62 62 61 60 58 57 57 57 58 59 60 61 62 62 61 61 61 62 62 62 60 59 59 59 60 60 61 61 61 61 62 62 63 63 63 63 64 63
57 57 56 56 56 55 55 55 56 57 57 57 55 56 60 61 58 57 59 61 64 66 67 68 68 68 67 65 61 59 57 56 56 56 57 57 58 59 60 60 59 60 61 63 64 63 62 62 62 62 63 63 63 63 63 64 64 64 65 66 67 67 67
58 58 57 56 57 58 58 59 60 60 61 62 61 62 66 68 67 64 63 64 67 69 71 72 72 71 70 67 64 62 60 58 57 56 56 56 56 57 58 58 59 59 60 62 64 65 65 66 66 65 66 66 66 65 65 65 66 66 67 67 68 69 69
60 60 59 59 60 62 63 65 66 66 66 67 68 68 70 71 71 70 70 71 72 74 75 76 74 72 69 67 65 64 63 61 60 58 57 56 57 57 57 58 59 59 60 60 61 63 65 67 67 67 68 69 69 67 67 67 68 69 69 69 70 70 71
62 63 63 64 66 67 68 69 70 70 70 70 71 72 72 73 73 73 74 75 75 75 75 75 73 71 69 67 65 64 64 63 62 62 61 59 59 59 59 59 59 60 60 60 61 62 63 64 66 68 70 72 71 69 68 69 70 71 72 72 72 72 72
64 65 66 67 69 70 71 71 71 71 71 71 72 72 73 73 74 74 74 75 74 74 73 72 71 69 68 67 65 65 64 64 64 64 64 63 62 62 62 62 61 61 61 61 61 62 62 63 64 67 70 72 73 72 71 71 72 73 74 74 75 76 76
65 66 67 69 70 71 71 72 72 72 71 71 71 72 72 72 73 73 74 74 73 73 72 71 69 68 67 66 66 66 65 66 66 66 66 66 66 66 66 66 65 64 64 63 63 64 64 64 65 66 68 71 73 73 73 73 73 73 74 75 76 77 78
65 66 68 69 70 70 71 71 71 71 71 71 71 71 71 72 72 72 72 72 72 72 71 70 69 68 68 67 66 66 67 67 68 68 69 69 69 70 71 71 70 69 68 67 67 66 66 66 67 68 69 71 72 73 73 74 75 75 76 77 77 78 78
62 64 65 66 67 68 68 68 68 69 70 70 71 71 71 71 71 71 71 71 71 71 70 70 69 69 69 69 68 68 68 68 69 70 70 71 72 73 73 74 74 73 73 73 72 71 70 69 69 70 71 72 72 73 74 75 76 77 78 78 79 79 79
60 62 63 65 66 66 67 67 68 69 69 70 70 70 69 69 69 70 70 70 70 70 70 70 69 69 69 69 69 69 70 70 71 72 72 73 74 75 75 76 76 76 76 77 77 76 75 75 74 73 73 74 74 75 76 77 77 78 79 79 79 80 80
61 63 64 65 66 66 67 67 68 68 68 68 68 68 68 68 68 69 69 70 70 70 70 70 70 70 70 70 71 71 72 73 74 74 75 76 76 77 77 78 79 79 79 79 79 79 79 79 79 78 78 77 78 78 79 79 79 80 80 80 81 81 82
61 63 64 64 65 65 66 66 66 67 67 67 67 67 67 67 68 69 70 71 72 72 72 72 72 72 73 73 74 74 75 75 76 76 77 78 79 79 80 80 80 81 81 82 82 82 82 82 82 81 81 81 81 81 81 81 82 82 82 83 83 83 83
64 65 65 65 65 65 66 66 66 66 66 67 67 67 67 68 70 71 72 73 73 74 74 74 75 76 76 76 76 77 77 77 77 78 79 79 80 81 81 82 82 82 83 83 84 84 85 85 84 84 84 83 83 82 82 83 83 84 84 85 85 85 86
67 67 68 67 67 67 68 68 68 68 68 68 68 68 69 70 72 73 74 75 75 76 76 77 77 78 78 78 78 78 78 78 79 79 80 80 80 81 81 82 83 83 83 84 84 85 86 86 86 86 86 85 84 84 83 83 83 83 84 84 85 86 87
72 71 71 70 70 71 71 71 71 70 70 69 70 70 72 73 75 76 77 77 77 78 78 78 79 79 79 79 79 79 79 79 80 80 80 80 80 80 80 81 81 82 82 83 84 85 85 86 86 86 86 86 86 86 85 84 83 82 82 83 83 84 85
75 75 74 74 74 74 75 75 74 73 72 71 71 73 74 76 77 78 79 79 80 80 80 80 80 80 80 80 80 80 80 80 80 80 79 79 78 78 78 79 79 79 80 81 82 82 83 83 84 84 85 86 86 86 85 85 83 82 82 81 81 81 82

ECMWFFLT1_250_spd_030.txt.gz
Wind_Speed
49 49 48 48 49 49 48 47 47 46 46 46 45 45 43 41 40 39 37 36 34 31 30 28 27 28 29 29 28 27 25 25 24 23 23 24 24 26 27 28 30 32 33 34 36 38 41 42 42 41 39 36 35 34 34 35 35 34 35 37 40 42 42
49 49 49 49 50 49 48 47 47 45 44 44 43 42 41 40 39 38 37 35 33 32 30 29 27 27 28 28 28 27 26 25 24 23 23 23 23 24 25 26 26 27 27 27 29 30 33 36 39 42 42 42 41 38 37 37 37 37 37 38 39 41 42
47 46 46 46 46 46 46 46 45 44 43 41 40 39 39 39 39 38 37 35 33 32 30 29 28 27 27 26 26 26 26 25 24 24 23 23 24 24 24 23 22 24 25 25 25 26 27 29 32 35 37 39 40 39 38 39 39 40 40 40 39 40 41
44 43 42 41 40 40 40 40 41 41 40 40 39 39 39 39 39 38 37 35 33 31 29 28 27 27 26 25 24 25 25 26 25 25 24 24 24 24 25 23 22 22 23 23 24 24 25 27 29 32 34 36 38 38 39 39 39 40 41 41 40 40 40
40 38 37 36 35 33 33 35 36 37 37 38 39 39 40 40 39 38 37 36 34 31 28 27 27 27 27 25 24 24 24 25 26 26 26 25 25 25 26 25 23 23 22 23 23 24 25 27 29 32 35 36 38 39 39 38 37 38 39 40 41 41 40
38 37 37 36 34 32 32 33 35 35 36 36 37 39 40 41 40 39 38 37 34 31 29 28 28 28 28 27 26 25 25 25 25 26 27 27 27 26 27 26 25 24 23 23 23 24 25 26 28 33 37 38 38 39 40 40 39 38 38 39 40 41 40
40 39 39 39 38 36 34 34 35 35 35 35 36 37 39 40 40 40 39 38 36 34 32 31 30 28 27 27 26 26 26 26 26 27 28 28 28 28 28 28 27 26 25 24 23 24 25 26 28 31 37 41 40 39 40 41 42 41 40 40 40 41 41
41 42 42 42 42 41 40 39 38 37 37 37 37 37 38 38 39 40 40 40 39 38 37 35 34 31 30 29 28 28 28 28 28 28 28 29 30 30 30 29 28 28 27 26 25 25 25 26 28 30 35 41 44 42 41 41 43 44 43 42 43 43 44
42 43 43 44 45 46 45 44 43 42 41 40 39 39 39 39 39 40 41 42 42 42 42 41 39 38 36 34 34 33 33 32 31 31 31 31 32 32 32 32 30 29 29 28 27 26 26 27 28 29 32 37 43 46 45 43 43 44 45 45 45 46 46
46 46 46 47 47 47 49 49 47 46 45 44 43 41 41 41 40 40 42 44 45 46 46 45 44 43 42 41 40 39 39 37 35 33 33 34 34 34 34 34 33 32 31 30 29 28 27 27 28 29 31 33 38 43 46 47 45 45 46 47 47 48 48
48 50 51 53 51 50 51 51 50 49 48 47 47 45 43 42 42 42 43 44 46 48 49 49 48 47 46 46 46 45 45 43 40 37 34 35 35 36 36 36 36 36 35 33 32 31 30 30 29 30 31 32 34 38 42 46 48 48 47 47 49 50 50
48 50 52 54 54 52 53 53 50 50 51 52 52 51 48 45 43 43 43 45 46 47 49 50 51 51 50 50 50 50 49 48 46 42 38 37 36 36 37 37 38 38 38 37 36 35 34 33 32 32 32 33 33 35 38 42 46 48 49 49 49 50 52
49 48 50 53 53 53 54 54 53 52 53 54 54 54 52 49 46 44 44 45 46 47 48 49 51 52 52 53 53 53 52 51 49 47 44 42 40 39 38 38 39 39 40 40 40 39 38 36 36 35 35 35 34 35 36 38 42 45 48 49 49 49 51
52 51 53 54 53 51 51 52 52 52 52 53 53 54 53 52 50 49 48 48 48 49 50 51 51 52 53 53 54 54 54 54 53 51 49 47 45 43 41 40 40 41 41 41 41 41 41 41 40 39 39 38 37 37 36 37 39 42 44 47 49 50 50
58 57 56 55 52 50 49 50 51 52 53 52 52 53 54 54 54 54 54 54 54 54 54 55 55 54 54 54 55 55 55 55 54 53 52 50 47 45 44 43 42 42 42 42 42 42 43 43 43 43 42 42 41 40 40 39 39 41 42 45 47 49 50
61 60 58 55 54 53 52 53 54 55 55 54 54 54 55 56 57 57 58 59 59 58 58 57 57 56 56 56 56 57 56 55 54 53 52 50 48 46 45 44 44 43 43 42 43 44 44 44 45 45 45 45 45 45 44 43 42 42 43 44 45 47 49
59 59 59 59 58 58 57 57 58 58 57 55 55 56 57 57 57 58 60 61 61 60 58 58 57 57 57 58 58 58 57 56 52 48 46 45 45 45 45 45 45 45 44 44 44 45 46 46 45 46 46 47 47 47 47 47 46 46 45 45 46 47 48
56 57 58 59 60 60 59 57 57 56 55 54 54 55 55 55 54 55 57 59 59 58 57 57 57 57 58 59 59 58 56 52 47 40 38 38 39 41 43 45 46 47 48 47 46 45 47 48 47 47 47 47 47 48 49 49 50 50 50 49 49 48 48
55 55 56 57 57 57 55 54 54 53 53 54 54 55 54 53 52 53 55 56 57 57 57 59 59 58 58 55 50 47 44 42 39 36 37 38 39 40 41 42 45 47 49 49 49 48 48 48 49 48 48 48 48 49 50 51 52 52 52 53 53 52 52
55 55 55 55 55 55 54 53 52 52 52 53 54 54 54 52 51 53 55 56 57 58 58 59 59 59 56 48 39 35 34 36 38 41 44 44 43 43 44 44 45 46 48 49 50 51 51 51 51 50 50 50 50 51 51 52 53 54 55 55 55 56 55
56 55 55 54 54 54 53 52 52 52 52 51 51 51 53 53 53 55 57 57 57 56 55 54 54 54 54 50 44 42 41 43 47 49 49 48 47 47 47 46 46 46 46 48 49 51 52 53 54 54 54 55 55 55 56 56 57 57 57 57 58 58 58
57 56 56 55 55 55 54 53 53 52 52 51 50 50 51 53 56 58 57 56 56 54 51 50 49 50 53 55 54 52 52 52 52 52 51 50 50 50 48 48 48 47 47 48 49 50 52 53 54 55 57 58 58 59 59 59 60 60 60 60 60 60 60
58 58 58 58 58 58 57 57 55 55 54 53 54 54 54 56 59 60 58 57 56 54 53 51 49 50 53 58 59 59 59 58 57 57 55 54 53 52 51 50 50 50 50 50 50 51 52 53 54 55 56 57 57 58 59 60 61 62 63 63 63 63 63
59 60 61 61 61 61 60 60 59 58 58 57 58 58 59 59 60 61 61 60 59 58 57 56 54 53 55 59 62 63 63 63 63 62 61 59 57 56 54 52 52 52 53 53 53 53 53 53 54 55 55 55 56 57 58 59 60 62 64 65 65 65 65
61 62 62 62 62 62 62 62 61 61 61 61 61 61 61 61 62 62 63 63 62 62 61 61 60 59 59 61 64 66 66 66 67 67 66 65 64 62 59 57 55 53 53 53 54 55 55 55 55 56 55 55 55 57 58 59 60 62 64 65 66 66 67
64 64 64 64 63 63 63 63 63 62 63 63 63 63 62 61 62 63 64 65 65 65 65 65 64 64 65 66 68 69 70 70 70 70 69 69 68 67 64 61 59 57 55 53 53 54 55 55 56 57 57 57 57 58 58 59 61 64 64 64 65 68 69
66 66 66 65 65 64 63 63 64 64 65 65 65 65 65 64 64 65 67 67 68 69 69 69 69 70 71 72 72 72 72 72 72 71 71 70 69 68 66 64 62 60 59 57 55 55 55 55 56 56 57 58 59 60 60 61 63 65 64 63 65 68 70
66 66 66 67 67 66 66 65 65 65 66 66 67 67 67 68 68 68 69 70 71 72 72 73 73 73 73 73 73 72 72 72 72 72 72 71 70 68 67 65 64 62 62 61 60 59 58 57 57 57 58 58 59 60 62 64 66 67 66 65 66 68 70
63 64 64 65 66 67 67 67 67 67 67 67 68 69 69 70 70 71 71 72 73 74 74 74 74 73 72 71 71 71 71 71 72 72 72 72 71 69 68 67 65 64 64 63 63 63 62 62 61 61 61 60 61 62 63 65 67 68 68 69 70 70 71
62 62 62 63 65 66 67 67 67 67 68 69 70 71 72 72 72 73 73 74 75 75 75 74 73 72 71 70 69 69 70 70 71 71 71 71 70 69 68 67 67 66 66 66 66 66 66 66 65 65 65 65 65 65 66 67 68 69 70 72 73 73 73
59 59 60 61 63 64 65 66 67 68 69 70 71 72 73 73 73 74 74 75 75 75 74 73 72 70 69 68 68 68 69 70 70 70 71 70 70 69 69 68 68 68 68 68 68 68 68 69 69 69 70 69 69 69 69 69 70 71 72 73 74 75 76
59 58 58 59 60 62 63 63 65 66 68 69 71 72 72 72 72 73 73 73 73 73 72 70 69 68 67 67 67 68 68 69 69 69 69 69 70 70 70 70 69 70 70 70 70 70 71 71 72 73 74 74 74 74 74 74 74 74 74 74 75 77 79
60 60 59 59 60 60 61 61 62 64 65 66 68 69 69 69 69 70 70 70 70 70 69 68 67 67 67 67 67 67 67 67 67 68 68 68 69 70 70 71 72 72 72 72 73 73 73 74 75 76 77 77 77 77 78 78 78 77 77 77 77 78 79
64 63 62 62 62 62 62 62 62 62 63 65 66 67 67 67 67 68 68 68 68 68 68 67 67 67 67 66 66 66 66 66 66 67 67 68 69 70 72 73 73 74 74 75 76 76 77 77 78 79 80 80 80 80 81 81 81 81 81 80 79 79 78
69 68 66 66 66 66 65 65 64 64 63 64 66 66 66 67 67 67 67 68 68 68 68 68 68 67 67 67 66 66 65 66 66 67 68 69 70 72 73 75 75 76 77 78 78 79 80 80 81 81 81 82 82 83 83 83 84 83 82 81 80 80 79
75 74 72 71 70 70 69 68 68 68 67 66 67 68 68 68 68 68 68 68 68 69 69 69 69 69 69 68 67 67 67 67 68 68 70 71 72 74 75 77 78 78 79 80 80 80 81 81 82 83 83 83 84 84 84 84 84 83 83 82 81 80 80
79 78 77 76 74 73 73 72 72 72 71 70 70 70 71 70 70 70 70 70 70 70 71 71 71 71 71 70 70 69 69 70 70 71 72 74 75 76 78 79 80 80 81 81 81 81 82 82 83 84 84 84 84 84 83 82 82 81 81 81 80 80 80

ECMWFFLT1_250_spd_033.txt.gz
Wind_Speed
38 38 38 38 38 39 39 40 40 41 41 41 41 41 41 41 40 39 38 35 34 32 31 31 31 32 32 32 31 30 29 28 27 26 26 26 25 25 24 24 25 26 28 30 31 31 32 32 34 36 38 37 35 34 34 34 35 35 35 36 35 35 35
37 37 37 37 37 37 38 38 38 39 39 40 40 39 39 39 39 38 37 35 33 31 31 31 31 32 32 32 32 31 30 28 27 25 25 25 24 24 23 23 23 24 25 27 29 30 30 30 32 34 37 40 40 39 37 36 35 35 35 35 35 36 36
35 35 36 36 37 37 37 37 37 37 37 37 37 36 36 36 36 35 34 33 32 32 31 32 32 32 33 33 32 31 29 27 25 24 24 24 23 23 23 22 21 22 22 23 25 26 27 28 29 31 33 37 41 43 42 40 39 39 38 38 38 38 38
34 34 33 34 34 35 35 36 35 35 35 34 33 32 32 32 32 31 31 32 33 33 33 33 33 32 32 32 31 30 28 26 24 23 23 23 23 23 23 22 21 21 21 22 23 24 25 26 27 27 29 32 36 41 45 46 45 44 42 42 42 42 41
34 34 33 33 32 32 33 32 33 33 32 31 30 30 29 29 28 28 29 30 33 35 35 35 34 33 32 31 30 29 27 26 24 23 23 22 23 23 23 23 22 21 21 22 22 23 23 25 25 25 26 28 30 34 40 44 47 47 46 46 46 45 45
35 35 34 33 33 33 33 33 33 32 32 31 30 29 29 28 27 27 28 29 31 33 35 36 36 35 33 32 31 29 28 27 25 24 23 23 22 23 23 24 23 23 22 22 22 23 24 24 25 25 26 27 28 30 33 38 43 46 47 48 47 47 46
36 36 35 34 34 34 34 34 34 34 34 34 33 32 31 29 28 27 27 28 29 30 32 34 36 36 36 35 33 31 30 29 27 26 25 23 22 22 23 24 24 24 24 23 23 23 24 25 25 25 26 27 28 29 31 34 38 41 44 45 45 45 45
40 40 39 38 38 37 36 36 36 36 36 36 36 36 35 34 33 32 32 31 31 31 31 33 35 36 37 37 36 34 33 32 31 30 29 27 26 26 26 26 26 26 26 26 26 25 25 26 26 27 27 27 28 29 30 32 36 39 41 42 42 42 42
43 43 42 42 42 42 42 41 40 39 38 37 37 37 37 38 38 39 38 38 37 35 34 34 34 36 38 39 39 38 37 36 36 35 34 34 33 32 31 30 29 29 28 28 28 28 27 27 28 28 28 28 28 29 30 32 35 39 42 42 41 41 41
43 43 44 44 44 44 45 45 45 44 43 42 41 41 40 41 41 42 42 42 42 40 39 38 37 37 38 39 41 41 41 41 40 40 39 39 39 38 37 36 35 33 32 30 29 29 30 30 30 30 30 30 29 29 30 31 33 37 41 44 44 43 42
44 44 45 45 46 46 47 49 50 49 47 45 45 45 45 45 45 45 44 44 44 44 43 42 41 41 41 41 42 43 44 44 44 44 43 43 43 42 42 41 39 38 36 34 32 30 31 31 32 32 32 32 31 31 31 31 32 34 38 43 46 46 45
48 49 50 49 49 49 49 51 53 52 49 47 48 49 49 48 48 48 47 46 45 45 45 45 45 45 45 44 44 45 45 45 46 46 46 46 46 46 45 44 43 41 40 39 37 34 33 32 33 33 34 35 34 34 33 33 33 34 35 39 44 48 49
52 53 53 53 53 53 53 54 55 55 53 50 50 51 51 50 49 49 48 48 47 47 47 47 47 47 46 46 46 45 45 44 45 45 46 47 47 47 46 45 45 44 43 43 42 40 37 35 34 34 35 36 37 37 36 35 35 35 35 36 39 43 48
52 52 53 54 55 55 55 55 56 56 54 52 51 51 52 52 52 51 50 49 49 49 49 48 48 48 47 47 47 46 45 44 44 45 46 47 47 47 47 47 46 45 44 43 44 43 41 39 37 36 36 37 38 39 39 39 38 37 37 37 38 39 42
54 55 55 56 56 56 56 56 56 56 55 54 51 51 52 52 51 51 51 51 52 52 51 50 50 50 49 49 49 49 49 49 49 49 49 49 50 49 49 48 47 45 44 43 43 44 43 41 40 38 38 38 39 39 40 41 41 41 40 40 40 40 40
58 58 58 57 57 57 57 58 59 60 60 59 56 53 53 52 51 51 52 53 54 54 53 53 53 53 52 52 52 52 53 53 53 52 51 51 51 51 50 49 48 46 44 43 43 44 44 43 41 40 40 40 40 40 41 42 43 44 44 44 43 42 42
61 60 60 59 58 58 57 57 58 59 60 61 60 58 57 56 56 56 56 56 56 56 56 55 54 54 54 54 54 54 55 54 54 53 52 51 51 50 51 51 49 46 44 41 40 41 42 42 41 40 40 41 41 42 42 43 44 45 46 47 47 46 45
63 62 62 61 60 59 58 58 58 58 58 59 59 58 57 57 58 59 59 59 59 58 56 54 53 52 52 52 52 53 54 53 52 50 49 49 48 47 48 48 45 42 38 35 34 35 38 40 41 41 42 43 43 43 44 45 46 47 48 48 49 49 50
64 63 63 62 62 61 59 59 58 58 58 58 57 57 55 56 57 58 59 60 59 57 56 54 52 51 51 50 49 51 52 51 49 48 46 45 44 41 40 37 35 34 32 31 31 32 34 37 40 42 44 45 46 47 48 47 48 48 49 50 50 51 52
65 65 64 63 63 62 61 59 59 58 58 57 57 55 55 55 56 57 58 58 57 56 55 54 52 50 49 49 48 50 50 49 48 46 44 42 40 36 31 26 27 29 32 34 35 35 36 38 41 43 44 45 47 48 49 50 51 50 50 51 52 52 53
66 66 65 65 64 63 62 60 59 59 58 57 56 55 55 55 56 56 56 56 56 55 54 53 51 49 49 48 47 48 49 49 48 47 44 41 37 34 30 29 31 35 39 40 39 39 41 41 42 44 45 45 46 47 48 50 51 52 53 53 54 54 54
67 67 66 65 64 63 62 61 60 59 59 58 57 56 55 55 55 55 54 54 54 54 54 53 52 51 50 49 48 48 49 50 50 49 47 43 40 38 38 39 41 43 44 43 42 42 42 42 43 43 44 44 45 45 46 47 49 51 54 56 57 58 58
68 68 67 66 65 63 62 61 60 60 59 59 58 58 57 57 57 56 55 54 53 53 53 53 52 53 52 51 50 50 50 51 52 52 51 49 47 45 44 45 45 46 46 46 45 45 44 44 45 45 44 44 45 45 45 46 47 49 51 54 57 60 61
70 69 67 66 65 64 63 63 62 61 61 60 60 59 59 59 59 59 58 57 56 55 55 54 54 54 54 54 54 54 53 53 53 54 55 54 53 52 50 50 49 50 50 50 49 49 48 48 48 47 46 47 47 47 46 47 48 49 51 53 55 57 59
71 70 69 67 66 65 65 64 63 63 62 62 62 62 61 62 63 63 62 61 60 60 59 58 57 58 58 58 57 57 56 55 55 56 56 57 57 56 56 55 55 55 55 56 57 56 54 52 51 50 50 50 50 50 49 49 48 49 51 54 55 56 56
72 71 70 69 67 67 66 65 64 64 64 64 64 64 63 64 65 65 64 64 63 63 63 62 61 61 61 61 60 59 58 58 57 57 57 58 59 59 59 59 60 60 61 62 64 63 61 58 56 54 53 52 52 52 52 51 51 51 52 54 55 56 56
73 72 72 70 69 68 67 65 64 63 63 65 66 65 65 67 67 66 65 65 65 65 65 64 63 63 63 62 62 61 60 60 59 59 59 60 61 62 62 63 64 65 66 67 67 67 65 62 60 58 57 55 54 53 52 52 53 54 54 55 56 56 57
73 73 72 71 70 69 68 67 66 65 65 68 69 68 68 69 68 67 67 67 67 67 67 66 66 65 64 64 63 63 63 62 62 62 62 63 64 65 66 67 68 69 70 70 69 67 65 64 62 60 59 58 57 55 54 54 54 55 56 57 57 57 58
72 72 71 70 70 69 69 68 68 69 70 71 71 70 70 70 70 70 70 70 70 69 69 69 68 68 67 66 66 66 66 65 65 65 66 66 67 68 70 71 71 72 72 71 69 67 65 64 62 61 60 59 58 57 56 56 57 57 58 59 59 59 60
69 69 68 67 67 67 67 67 67 67 68 68 68 68 69 70 71 71 72 72 72 72 72 71 71 70 70 69 68 68 67 67 67 67 68 69 70 71 72 73 72 72 71 70 68 66 64 63 63 62 61 60 59 59 58 58 59 60 60 61 61 61 62
66 66 65 64 64 64 64 64 64 64 64 64 64 65 66 67 69 70 70 72 73 73 74 73 73 72 72 71 70 69 69 68 69 69 70 70 71 72 72 72 71 70 68 67 65 64 63 63 63 62 62 61 60 60 60 61 61 62 62 63 63 64 64
65 65 64 63 62 62 61 62 62 62 62 61 61 62 63 64 66 67 68 69 71 71 72 73 73 73 72 71 71 70 70 70 70 70 71 71 71 71 70 69 67 66 65 64 64 63 63 63 63 63 63 62 62 62 62 63 63 64 65 66 66 66 67
66 66 65 64 63 62 61 61 61 61 61 61 61 61 61 62 64 65 66 67 68 69 69 70 70 70 70 69 69 69 69 69 69 69 69 69 69 68 67 66 65 65 65 65 65 65 65 65 65 64 64 63 63 64 65 65 66 67 68 68 69 70 71
70 70 69 67 66 65 64 63 63 62 61 61 61 62 61 61 62 63 64 65 66 66 66 67 67 67 67 67 67 67 67 67 66 66 66 67 67 67 66 66 66 66 66 67 67 67 66 66 66 65 65 65 66 67 67 68 68 69 70 71 72 73 74
74 74 73 73 71 69 68 67 66 65 64 63 64 64 63 62 62 63 63 64 64 64 65 65 65 65 65 65 66 66 66 65 65 65 65 65 66 66 66 66 66 67 67 67 67 66 66 66 66 66 67 68 69 69 70 70 71 72 73 74 76 77 77
77 77 77 77 76 75 73 72 71 70 69 68 67 67 66 65 65 65 64 65 65 64 64 65 64 65 65 66 66 66 66 66 65 65 64 65 65 65 66 66 66 67 67 67 67 67 67 67 68 68 69 70 71 72 72 73 74 76 77 78 79 79 80
81 81 81 81 81 80 78 77 76 75 74 72 71 72 71 70 68 68 68 68 67 67 66 66 67 67 67 68 68 68 68 67 67 66 66 66 66 66 66 67 67 68 68 68 68 68 69 70 70 71 71 72 73 74 75 76 78 79 79 80 80 79 79